                ,  0.721,  0.869,  1.017,  1.165,  1.312,  1.460,  1.608,  1.756,  1.904,  2.052,  2.199,  2.347,  2.495,  2.643,  2.791,  2.938,  3.086,  3.234,  3.382,  3.530,  3.677,  3.825,  3.973,  4.121,  4.269,  4.417,  4.564,  4.712,  4.860,  5.008,  5.156,  5.303
1999/08/02 00:00,  999.0,  999.0,  999.0,  999.0,  999.0,  999.0,  999.0,  999.0,  999.0,  999.0,  999.0,  999.0,  999.0,  999.0,  999.0,  999.0,  999.0,  999.0,  999.0,  999.0,  999.0,  999.0,  999.0,  999.0,  999.0,  999.0,  999.0,  999.0,  999.0,  999.0,  999.0,  999.0
1999/08/02 00:10,   14.3,   15.1,   16.4,   16.4,   16.6,   16.8,   16.9,   16.0,   15.7,   14.2,   11.8,   11.8,   11.6,  999.0,  999.0,  999.0,   10.8,   10.1,    9.9,    9.6,  999.0,  999.0,  999.0,  999.0,  999.0,  999.0,  999.0,  999.0,  999.0,  999.0,  999.0,  999.0
1999/08/02 00:20,   13.9,   15.2,   16.0,   16.6,   16.9,   17.0,   16.9,   16.5,   16.4,   15.0,   13.8,   12.0,   12.5,   12.6,  999.0,  999.0,  999.0,  999.0,  999.0,    8.9,  999.0,  999.0,  999.0,  999.0,  999.0,  999.0,  999.0,  999.0,  999.0,  999.0,  999.0,  999.0
1999/08/02 00:30,   12.8,   14.1,   15.1,   15.9,   16.7,   17.1,   17.7,   17.4,   16.6,   15.2,   13.8,   12.6,   12.3,   12.1,   12.3,  999.0,  999.0,  999.0,  999.0,  999.0,  999.0,  999.0,  999.0,  999.0,  999.0,  999.0,  999.0,  999.0,  999.0,  999.0,  999.0,  999.0
1999/08/02 00:40,   12.2,   13.6,   14.8,   16.3,   16.0,   16.1,   17.1,   16.7,   16.5,   15.9,   14.2,   13.7,   11.8,   11.0,   11.5,   10.7,  999.0,  999.0,  999.0,  999.0,  999.0,  999.0,  999.0,  999.0,  999.0,  999.0,  999.0,  999.0,  999.0,  999.0,  999.0,  999.0
1999/08/02 00:50,   12.5,   13.2,   14.2,   15.3,   16.2,   16.0,   16.3,   16.5,   17.2,   16.8,   15.2,   13.8,  999.0,   11.6,   11.4,  999.0,  999.0,  999.0,  999.0,  999.0,  999.0,  999.0,  999.0,  999.0,  999.0,  999.0,  999.0,  999.0,  999.0,  999.0,  999.0,  999.0
1999/08/02 01:00,   12.2,   12.6,   14.3,   15.6,   16.5,   17.0,   17.6,   17.5,   17.6,   17.4,   16.9,   16.7,   15.3,   14.0,   12.6,   12.6,  999.0,  999.0,  999.0,  999.0,  999.0,  999.0,  999.0,  999.0,  999.0,  999.0,  999.0,  999.0,  999.0,  999.0,  999.0,  999.0
1999/08/02 01:10,   13.0,   13.7,   15.0,   15.7,   16.6,   16.9,   17.8,   18.0,   17.9,   17.0,   16.4,   15.4,   14.1,   13.3,   12.2,   10.7,  999.0,  999.0,  999.0,  999.0,  999.0,  999.0,  999.0,  999.0,  999.0,  999.0,  999.0,  999.0,  999.0,  999.0,  999.0,  999.0
1999/08/02 01:20,   12.4,   13.4,   14.8,   16.3,   17.0,   17.1,   17.2,   17.1,   17.3,   16.2,   16.2,   15.8,  999.0,  999.0,  999.0,  999.0,  999.0,  999.0,  999.0,  999.0,  999.0,  999.0,  999.0,  999.0,  999.0,  999.0,  999.0,  999.0,  999.0,  999.0,  999.0,  999.0
1999/08/02 01:30,   12.8,   14.6,   16.4,   16.8,   16.9,   16.9,   16.7,   16.6,   17.0,   16.1,   16.2,   15.5,   15.3,  999.0,  999.0,  999.0,  999.0,  999.0,  999.0,  999.0,  999.0,  999.0,  999.0,  999.0,  999.0,  999.0,  999.0,  999.0,  999.0,  999.0,  999.0,  999.0
1999/08/02 01:40,   12.6,   14.2,   15.8,   16.1,   16.4,   16.7,   16.2,   15.7,   16.0,   16.5,   15.9,   14.7,   14.7,  999.0,  999.0,  999.0,  999.0,  999.0,  999.0,  999.0,  999.0,  999.0,  999.0,  999.0,  999.0,  999.0,  999.0,  999.0,  999.0,  999.0,  999.0,  999.0
1999/08/02 01:50,   13.2,   14.7,   15.1,   14.9,   15.5,   15.7,   15.4,   15.9,   16.3,   16.0,   15.1,   14.7,   14.2,  999.0,  999.0,  999.0,    9.6,  999.0,  999.0,  999.0,  999.0,  999.0,  999.0,  999.0,  999.0,  999.0,  999.0,  999.0,  999.0,  999.0,  999.0,  999.0
1999/08/02 02:00,   12.8,   14.5,   14.9,   14.7,   14.6,   14.5,   14.3,   14.6,   14.8,   14.2,   13.5,   13.5,   12.8,   11.0,   10.5,  999.0,  999.0,  999.0,  999.0,  999.0,  999.0,  999.0,  999.0,  999.0,  999.0,  999.0,  999.0,  999.0,  999.0,  999.0,  999.0,  999.0
1999/08/02 02:10,   13.7,   14.6,   14.8,   14.1,   14.7,   14.0,   13.9,   14.5,   14.4,   13.7,   13.3,   12.7,   11.7,    9.8,  999.0,  999.0,  999.0,  999.0,  999.0,  999.0,  999.0,  999.0,  999.0,  999.0,  999.0,  999.0,  999.0,  999.0,  999.0,  999.0,  999.0,  999.0
1999/08/02 02:20,   11.6,   13.2,  999.0,   13.9,   13.4,   12.2,   11.5,   12.8,   12.9,   13.7,   12.4,   10.6,   10.1,  999.0,    7.7,  999.0,  999.0,  999.0,  999.0,  999.0,  999.0,  999.0,  999.0,  999.0,  999.0,  999.0,  999.0,  999.0,  999.0,  999.0,  999.0,  999.0
1999/08/02 02:30,   12.0,   12.3,   13.0,   13.6,   13.5,   13.4,   12.6,   12.6,   11.7,   11.7,   11.7,   10.5,    9.1,    7.8,    7.5,    6.3,  999.0,  999.0,  999.0,  999.0,  999.0,  999.0,  999.0,  999.0,  999.0,  999.0,  999.0,  999.0,  999.0,  999.0,  999.0,  999.0
1999/08/02 02:40,   12.1,   12.8,   13.1,   13.8,   14.7,   14.7,   14.6,   13.9,   13.4,   13.4,   12.5,   12.1,    9.7,    8.4,    7.9,    7.6,  999.0,  999.0,  999.0,  999.0,  999.0,  999.0,  999.0,  999.0,  999.0,  999.0,  999.0,  999.0,  999.0,  999.0,  999.0,  999.0
1999/08/02 02:50,   12.1,   13.2,   13.9,   14.4,   14.5,   14.1,   14.2,   13.3,   13.3,   13.8,   13.5,   13.0,   12.0,   10.7,    9.3,    7.6,  999.0,  999.0,  999.0,  999.0,  999.0,  999.0,  999.0,  999.0,  999.0,  999.0,  999.0,  999.0,  999.0,  999.0,  999.0,  999.0
1999/08/02 03:00,   12.0,   13.4,   13.7,   13.9,   13.5,   12.9,   12.2,  999.0,   13.0,   13.4,   13.2,   13.2,   11.7,   11.6,    9.2,    6.7,    6.5,  999.0,  999.0,  999.0,  999.0,  999.0,  999.0,  999.0,  999.0,  999.0,  999.0,  999.0,  999.0,  999.0,  999.0,  999.0
1999/08/02 03:10,   12.1,   12.6,   12.8,   13.0,   14.0,   14.5,   14.1,   13.6,   13.4,   12.9,   12.1,   12.5,   13.0,   11.4,    9.4,    6.6,    6.5,    6.0,  999.0,  999.0,  999.0,  999.0,  999.0,  999.0,  999.0,  999.0,  999.0,  999.0,  999.0,  999.0,  999.0,  999.0
1999/08/02 03:20,   11.8,   10.9,   11.7,   13.5,   15.1,   15.2,   14.8,   14.2,   13.7,   14.1,   14.1,   13.7,   15.1,   10.7,    9.4,    8.0,    6.7,    5.6,    5.4,  999.0,  999.0,  999.0,  999.0,  999.0,  999.0,  999.0,  999.0,  999.0,  999.0,  999.0,  999.0,  999.0
1999/08/02 03:30,   11.8,   12.4,   13.7,   15.3,   15.8,   15.8,   15.2,   15.0,   14.2,   13.0,   12.9,   13.7,   14.0,  999.0,    8.7,    7.9,    7.2,    6.2,    6.0,    5.8,  999.0,  999.0,  999.0,  999.0,  999.0,  999.0,  999.0,  999.0,  999.0,  999.0,  999.0,  999.0
1999/08/02 03:40,   12.5,   13.8,   14.4,   15.0,   15.2,   15.3,   15.0,   14.8,   14.2,   13.7,   12.9,   13.3,   13.6,   12.7,  999.0,    8.7,    7.9,    7.1,    6.6,    7.1,  999.0,  999.0,  999.0,  999.0,  999.0,  999.0,  999.0,  999.0,  999.0,  999.0,  999.0,  999.0
1999/08/02 03:50,   13.1,   14.0,   14.3,   14.8,   15.2,   16.0,   15.8,   14.6,   13.6,   13.4,   12.7,   12.1,  999.0,  999.0,  999.0,  999.0,  999.0,    8.9,    6.9,  999.0,    6.6,  999.0,  999.0,  999.0,  999.0,  999.0,  999.0,  999.0,  999.0,  999.0,  999.0,  999.0
1999/08/02 04:00,   13.1,   14.1,   14.8,   14.7,   14.8,   15.1,   16.0,   16.3,   15.0,   14.7,   15.9,   14.3,   13.4,  999.0,  999.0,  999.0,  999.0,  999.0,    8.1,    8.2,    8.6,  999.0,  999.0,  999.0,  999.0,  999.0,  999.0,  999.0,  999.0,  999.0,  999.0,  999.0
1999/08/02 04:10,   13.2,   14.0,   14.7,   15.2,   15.1,   15.6,   15.6,   16.2,   14.3,   15.3,   15.4,   15.6,   14.0,  999.0,  999.0,  999.0,  999.0,  999.0,  999.0,  999.0,  999.0,  999.0,  999.0,  999.0,  999.0,  999.0,  999.0,  999.0,  999.0,  999.0,  999.0,  999.0
1999/08/02 04:20,   13.4,   13.5,   14.3,   14.9,   15.4,   15.7,   15.7,   15.7,   15.2,   15.8,   16.0,  999.0,  999.0,   12.5,  999.0,  999.0,  999.0,  999.0,  999.0,    9.5,  999.0,  999.0,  999.0,  999.0,  999.0,  999.0,  999.0,  999.0,  999.0,  999.0,  999.0,  999.0
1999/08/02 04:30,   13.3,   13.6,   14.1,   14.6,   15.3,   15.5,   16.3,   15.7,   14.8,   14.9,  999.0,  999.0,  999.0,  999.0,  999.0,  999.0,  999.0,  999.0,  999.0,  999.0,  999.0,  999.0,  999.0,  999.0,  999.0,  999.0,  999.0,  999.0,  999.0,  999.0,  999.0,  999.0
1999/08/02 04:40,   12.8,   13.3,   13.9,   15.1,   15.3,   15.0,   15.5,   15.6,   14.3,   14.7,   15.4,  999.0,   14.4,  999.0,  999.0,  999.0,   10.3,    9.8,   10.0,  999.0,  999.0,  999.0,  999.0,  999.0,  999.0,  999.0,  999.0,  999.0,  999.0,  999.0,  999.0,  999.0
1999/08/02 04:50,   13.4,   13.9,   14.9,   15.1,   15.0,   15.5,   15.9,   16.3,   14.8,   15.1,   16.0,   16.0,  999.0,  999.0,  999.0,    9.2,    7.4,  999.0,  999.0,  999.0,  999.0,  999.0,  999.0,  999.0,  999.0,  999.0,  999.0,  999.0,  999.0,  999.0,  999.0,  999.0
1999/08/02 05:00,   13.7,   14.3,   14.9,   15.3,   15.6,   16.2,   15.8,   16.0,   15.4,   16.3,   17.2,   16.3,   13.4,   10.9,   10.4,    9.2,    8.9,    8.4,  999.0,  999.0,  999.0,  999.0,  999.0,  999.0,  999.0,  999.0,  999.0,  999.0,  999.0,  999.0,  999.0,  999.0
1999/08/02 05:10,   13.5,   14.0,   14.2,   14.8,   15.4,   15.4,   16.7,   16.7,   15.9,   16.4,   17.1,   15.8,   14.4,   13.1,   10.8,   10.0,    9.8,  999.0,  999.0,  999.0,  999.0,  999.0,  999.0,  999.0,  999.0,  999.0,  999.0,  999.0,  999.0,  999.0,  999.0,  999.0
1999/08/02 05:20,   11.9,   13.7,   14.5,   15.3,   15.5,   15.1,   15.4,   15.5,   14.9,   14.9,   14.5,   14.6,   13.1,   11.8,    9.5,  999.0,    9.6,  999.0,  999.0,  999.0,  999.0,  999.0,  999.0,  999.0,  999.0,  999.0,  999.0,  999.0,  999.0,  999.0,  999.0,  999.0
1999/08/02 05:30,   12.3,   13.1,   13.2,   13.9,   14.6,   15.0,   15.3,   15.2,   15.4,   15.1,   15.3,   15.2,   13.7,   11.0,    8.6,    7.7,  999.0,  999.0,  999.0,  999.0,  999.0,  999.0,  999.0,  999.0,  999.0,  999.0,  999.0,  999.0,  999.0,  999.0,  999.0,  999.0
1999/08/02 05:40,   11.3,   12.3,   12.1,   12.7,   12.9,   14.1,   14.1,   14.2,   14.2,   14.2,   14.1,   13.5,   12.6,   11.5,    9.2,    6.2,    6.2,    6.2,  999.0,  999.0,  999.0,  999.0,  999.0,  999.0,  999.0,  999.0,  999.0,  999.0,  999.0,  999.0,  999.0,  999.0
1999/08/02 05:50,   10.4,   12.1,   12.4,   12.5,   12.4,   12.6,   12.4,   12.9,   12.5,   12.0,   11.5,   11.3,   10.2,    8.0,    7.0,    4.6,    4.9,    5.7,    6.5,  999.0,  999.0,  999.0,  999.0,  999.0,  999.0,  999.0,  999.0,  999.0,  999.0,  999.0,  999.0,  999.0
1999/08/02 06:00,    9.6,   11.7,   12.6,   13.1,   13.8,   14.2,   13.3,   12.3,  999.0,   12.4,   10.8,   10.0,    8.5,    6.3,    3.8,    3.9,    5.1,  999.0,    6.8,    7.5,  999.0,  999.0,  999.0,  999.0,  999.0,  999.0,  999.0,  999.0,  999.0,  999.0,  999.0,  999.0
1999/08/02 06:10,   10.8,   12.2,   13.0,   13.9,   14.7,   14.9,   14.3,   13.8,   12.8,   12.7,   12.5,    9.3,    6.8,    5.1,    5.8,    7.6,    9.3,    9.0,    9.2,  999.0,  999.0,  999.0,  999.0,  999.0,  999.0,  999.0,  999.0,  999.0,  999.0,  999.0,  999.0,  999.0
1999/08/02 06:20,   11.2,   13.1,   13.7,   14.6,   15.2,   15.1,   15.0,   15.1,   14.9,   14.5,   14.3,   12.5,    9.2,    6.9,    7.0,    8.2,    9.4,   10.4,   11.6,  999.0,  999.0,  999.0,  999.0,  999.0,  999.0,  999.0,  999.0,  999.0,  999.0,  999.0,  999.0,  999.0
1999/08/02 06:30,   11.1,   12.9,   13.5,   13.7,   14.3,   14.6,   14.4,   15.0,   16.2,   15.1,   13.8,   12.7,   10.9,    9.4,    8.5,    8.8,    9.2,    8.8,    9.5,  999.0,  999.0,  999.0,  999.0,  999.0,  999.0,  999.0,  999.0,  999.0,  999.0,  999.0,  999.0,  999.0
1999/08/02 06:40,   10.7,   12.1,   13.1,   13.8,   14.3,   14.9,   15.0,   14.8,   15.3,   14.9,   14.6,   13.7,   12.6,   12.4,   11.4,   11.9,   11.4,   12.0,  999.0,  999.0,  999.0,  999.0,  999.0,  999.0,  999.0,  999.0,  999.0,  999.0,  999.0,  999.0,  999.0,  999.0
1999/08/02 06:50,   10.3,   11.8,   13.0,   13.9,   14.2,   14.7,   14.9,   14.8,   14.3,   14.0,   13.8,   13.2,   11.9,   11.1,   10.1,  999.0,    9.8,   10.5,  999.0,  999.0,  999.0,  999.0,  999.0,  999.0,  999.0,  999.0,  999.0,  999.0,  999.0,  999.0,  999.0,  999.0
1999/08/02 07:00,   10.3,   12.1,   13.2,   13.8,   14.4,   14.7,   14.3,   15.1,   14.5,   14.2,   13.9,   13.0,   12.0,   12.2,   11.9,   11.4,   10.7,   10.4,  999.0,  999.0,  999.0,  999.0,  999.0,  999.0,  999.0,  999.0,  999.0,  999.0,  999.0,  999.0,  999.0,  999.0
1999/08/02 07:10,   11.7,   12.8,   12.8,   13.8,   14.6,   14.2,   14.7,   14.7,   14.8,   14.6,   13.8,   12.7,   11.8,   12.7,   11.8,   11.0,  999.0,   10.8,  999.0,  999.0,  999.0,  999.0,  999.0,  999.0,  999.0,  999.0,  999.0,  999.0,  999.0,  999.0,  999.0,  999.0
1999/08/02 07:20,   10.9,   12.0,   12.2,   12.3,   12.9,   12.8,   13.1,   14.5,   14.4,   13.9,   12.8,   12.4,   11.7,   12.1,  999.0,   10.7,  999.0,  999.0,  999.0,  999.0,  999.0,  999.0,  999.0,  999.0,  999.0,  999.0,  999.0,  999.0,  999.0,  999.0,  999.0,  999.0
1999/08/02 07:30,   11.3,   11.8,   12.5,   12.5,   13.3,   14.0,   14.1,   14.3,   14.3,   15.0,   14.5,   14.0,   12.9,   13.7,   12.2,  999.0,  999.0,  999.0,  999.0,  999.0,  999.0,  999.0,  999.0,  999.0,  999.0,  999.0,  999.0,  999.0,  999.0,  999.0,  999.0,  999.0
1999/08/02 07:40,    8.9,   12.3,   11.6,   11.9,   12.7,   13.1,   13.9,   14.4,   13.5,   14.5,   14.9,   15.5,   15.8,   16.5,  999.0,   11.1,   10.4,  999.0,  999.0,  999.0,  999.0,  999.0,  999.0,  999.0,  999.0,  999.0,  999.0,  999.0,  999.0,  999.0,  999.0,  999.0
1999/08/02 07:50,   10.4,   12.3,   12.5,   12.9,   13.7,   15.2,   15.2,   15.3,   14.9,   14.6,   15.1,   14.6,   14.8,   15.4,  999.0,  999.0,  999.0,  999.0,  999.0,  999.0,  999.0,  999.0,  999.0,  999.0,  999.0,  999.0,  999.0,  999.0,  999.0,  999.0,  999.0,  999.0
1999/08/02 08:00,    9.8,   11.6,   12.8,   13.5,   13.6,   14.7,   16.1,   15.9,   13.3,   13.8,   15.6,   14.2,   13.4,  999.0,  999.0,  999.0,  999.0,  999.0,  999.0,  999.0,  999.0,  999.0,  999.0,  999.0,  999.0,  999.0,  999.0,  999.0,  999.0,  999.0,  999.0,  999.0
1999/08/02 08:10,    7.5,   10.9,   12.5,   13.2,   12.3,   13.6,   14.8,   15.3,   15.3,   14.1,   15.5,   15.2,   13.2,   12.9,   13.3,  999.0,  999.0,  999.0,  999.0,  999.0,  999.0,  999.0,  999.0,  999.0,  999.0,  999.0,  999.0,  999.0,  999.0,  999.0,  999.0,  999.0
1999/08/02 08:20,    8.8,   12.4,   12.6,   13.8,   13.8,   12.9,   12.3,   13.6,   14.5,   14.1,   14.5,   13.2,   13.3,   12.7,  999.0,  999.0,  999.0,  999.0,  999.0,  999.0,  999.0,  999.0,  999.0,  999.0,  999.0,  999.0,  999.0,  999.0,  999.0,  999.0,  999.0,  999.0
1999/08/02 08:30,   11.9,   13.0,   13.8,   15.2,   15.1,   15.1,   14.1,   12.5,   12.8,   14.4,   14.9,  999.0,  999.0,  999.0,  999.0,  999.0,  999.0,  999.0,  999.0,  999.0,  999.0,  999.0,  999.0,  999.0,  999.0,  999.0,  999.0,  999.0,  999.0,  999.0,  999.0,  999.0
1999/08/02 08:40,    6.8,   10.4,   11.2,   13.0,   13.9,   14.3,   14.3,   13.7,   10.8,   12.1,   13.4,  999.0,  999.0,  999.0,  999.0,  999.0,  999.0,  999.0,  999.0,  999.0,  999.0,  999.0,  999.0,  999.0,  999.0,  999.0,  999.0,  999.0,  999.0,  999.0,  999.0,  999.0
1999/08/02 08:50,    8.9,    9.4,   12.1,   13.4,   15.0,   14.8,   15.5,   14.9,   12.2,   10.6,   12.6,  999.0,  999.0,  999.0,  999.0,  999.0,  999.0,  999.0,  999.0,  999.0,  999.0,  999.0,  999.0,  999.0,  999.0,  999.0,  999.0,  999.0,  999.0,  999.0,  999.0,  999.0
1999/08/02 09:00,   11.0,   11.6,   12.9,   14.5,   16.0,   16.3,   16.3,   14.8,   12.5,   10.2,   12.5,   13.1,  999.0,  999.0,  999.0,  999.0,  999.0,  999.0,  999.0,  999.0,  999.0,  999.0,  999.0,  999.0,  999.0,  999.0,  999.0,  999.0,  999.0,  999.0,  999.0,  999.0
1999/08/02 09:10,   10.3,   10.2,   11.4,   13.7,  999.0,  999.0,   16.3,   16.2,   12.2,   11.1,   12.6,   12.6,  999.0,  999.0,  999.0,  999.0,  999.0,  999.0,  999.0,  999.0,  999.0,  999.0,  999.0,  999.0,  999.0,  999.0,  999.0,  999.0,  999.0,  999.0,  999.0,  999.0
1999/08/02 09:20,    7.6,    8.7,   12.1,   11.4,   15.3,   16.7,   15.4,   13.8,   12.4,   11.0,  999.0,   12.3,   11.5,   12.1,  999.0,  999.0,  999.0,  999.0,  999.0,  999.0,  999.0,  999.0,    8.9,  999.0,  999.0,  999.0,  999.0,  999.0,  999.0,  999.0,  999.0,  999.0
1999/08/02 09:30,    7.0,   11.2,   11.4,   13.0,   11.6,   14.1,   13.9,   14.0,   12.6,   12.3,   13.6,   13.3,   11.4,   12.5,  999.0,  999.0,  999.0,  999.0,  999.0,  999.0,  999.0,  999.0,  999.0,  999.0,  999.0,  999.0,  999.0,  999.0,  999.0,  999.0,  999.0,  999.0
1999/08/02 09:40,    7.8,   10.9,   12.5,   14.3,   15.9,   13.8,   15.5,   13.7,   14.9,   12.2,   12.8,   12.4,  999.0,   11.6,  999.0,  999.0,  999.0,  999.0,  999.0,  999.0,  999.0,  999.0,  999.0,  999.0,  999.0,  999.0,  999.0,  999.0,  999.0,  999.0,  999.0,  999.0
1999/08/02 09:50,    7.3,    9.4,   11.2,   13.1,   15.5,   17.5,   17.1,   15.1,   13.1,   11.6,   12.9,   12.9,  999.0,  999.0,  999.0,  999.0,  999.0,  999.0,  999.0,  999.0,  999.0,  999.0,  999.0,  999.0,  999.0,  999.0,  999.0,  999.0,  999.0,  999.0,  999.0,  999.0
1999/08/02 10:00,    9.1,   11.1,   11.9,   13.6,   13.7,   14.9,   16.1,   15.0,   13.7,   13.3,   11.9,   13.2,   13.0,  999.0,  999.0,  999.0,  999.0,  999.0,  999.0,  999.0,  999.0,  999.0,  999.0,  999.0,  999.0,  999.0,  999.0,  999.0,  999.0,  999.0,  999.0,  999.0
1999/08/02 10:10,    9.0,   10.9,   11.5,   12.6,   13.6,   15.3,   16.4,   16.1,   14.8,   14.4,   14.2,   13.2,   13.7,   14.1,  999.0,  999.0,  999.0,  999.0,  999.0,  999.0,  999.0,  999.0,  999.0,  999.0,  999.0,  999.0,  999.0,  999.0,  999.0,  999.0,  999.0,  999.0
1999/08/02 10:20,    7.6,    9.6,   12.2,   13.1,   14.6,   14.4,   15.9,   16.2,   15.2,   15.4,   15.3,   12.7,   12.3,   11.6,  999.0,  999.0,  999.0,  999.0,  999.0,  999.0,  999.0,  999.0,  999.0,  999.0,  999.0,  999.0,  999.0,  999.0,  999.0,  999.0,  999.0,  999.0
1999/08/02 10:30,    7.7,    7.3,    8.9,   10.9,   12.0,   15.0,   14.4,   15.8,   14.9,   14.9,   15.8,   14.9,  999.0,  999.0,  999.0,  999.0,  999.0,  999.0,  999.0,  999.0,  999.0,  999.0,  999.0,  999.0,  999.0,  999.0,  999.0,  999.0,  999.0,  999.0,  999.0,  999.0
1999/08/02 10:40,    8.0,   10.4,    9.6,   11.8,   11.9,   13.5,   13.8,   13.9,   14.2,   13.9,   14.0,   14.0,   13.6,  999.0,   10.9,  999.0,  999.0,  999.0,  999.0,  999.0,  999.0,  999.0,  999.0,  999.0,  999.0,  999.0,  999.0,  999.0,  999.0,  999.0,  999.0,  999.0
1999/08/02 10:50,    7.8,    9.7,   10.2,   12.6,   15.1,   15.9,   15.3,   14.8,   13.6,   13.2,   12.6,   13.7,   13.5,  999.0,  999.0,  999.0,  999.0,  999.0,  999.0,  999.0,  999.0,  999.0,  999.0,  999.0,  999.0,  999.0,  999.0,  999.0,  999.0,  999.0,  999.0,  999.0
1999/08/02 11:00,    8.5,    8.8,   10.9,   12.3,   14.9,   16.0,   15.7,   16.5,   15.1,   14.2,   12.8,   13.1,   13.8,   12.0,   11.6,   10.6,  999.0,  999.0,  999.0,  999.0,  999.0,  999.0,  999.0,  999.0,  999.0,  999.0,  999.0,  999.0,  999.0,  999.0,  999.0,  999.0
1999/08/02 11:10,    6.9,    9.1,    9.8,   11.7,   12.9,   14.2,   16.0,   16.2,   16.5,   16.2,   13.8,   12.7,   13.5,   13.2,   12.4,   11.6,   10.5,   10.1,  999.0,  999.0,  999.0,  999.0,  999.0,  999.0,  999.0,  999.0,  999.0,  999.0,  999.0,  999.0,  999.0,  999.0
1999/08/02 11:20,    7.2,    9.2,   10.3,   10.2,   11.5,   13.7,   13.5,   16.6,   16.9,   14.9,   12.6,   13.5,   14.3,   13.8,   14.1,   11.6,    9.9,    9.1,    6.9,    7.7,    8.4,    8.7,  999.0,  999.0,  999.0,  999.0,  999.0,  999.0,  999.0,  999.0,  999.0,  999.0
1999/08/02 11:30,    9.6,    8.5,   10.5,   11.9,   14.3,   14.9,   14.7,   15.4,   14.6,   14.0,   12.5,   12.7,   13.3,   12.9,  999.0,   11.4,    9.0,    8.5,    8.5,    8.5,    7.7,    8.1,    9.2,  999.0,  999.0,  999.0,  999.0,  999.0,  999.0,  999.0,  999.0,  999.0
1999/08/02 11:40,   10.1,    9.7,   10.3,   12.6,   14.2,   13.1,   14.6,   15.2,   15.8,   14.7,   12.5,   13.0,   14.4,   14.0,   12.8,   12.3,  999.0,  999.0,  999.0,    9.1,    8.6,    7.6,    7.7,  999.0,  999.0,  999.0,  999.0,  999.0,  999.0,  999.0,  999.0,  999.0
1999/08/02 11:50,    8.1,    9.6,    9.5,   11.4,    9.6,   11.0,  999.0,   13.1,   13.6,   13.0,   13.1,   14.4,   14.1,   13.3,   12.9,  999.0,  999.0,  999.0,   10.7,  999.0,  999.0,  999.0,    9.2,  999.0,  999.0,  999.0,  999.0,  999.0,  999.0,  999.0,  999.0,  999.0
1999/08/02 12:00,   12.7,   11.3,   12.6,   15.0,   14.7,   16.8,  999.0,  999.0,   14.5,   15.7,   16.1,   14.3,   15.5,   15.7,   13.9,   13.8,   12.3,  999.0,  999.0,  999.0,  999.0,  999.0,  999.0,  999.0,  999.0,  999.0,  999.0,  999.0,  999.0,  999.0,  999.0,  999.0
1999/08/02 12:10,   10.7,    9.9,   10.8,   10.5,   12.9,   15.0,   14.1,   14.2,   15.1,   12.8,   14.1,   14.5,   14.7,   13.7,   13.9,   12.4,   10.9,  999.0,   11.5,  999.0,  999.0,  999.0,  999.0,  999.0,  999.0,  999.0,  999.0,  999.0,  999.0,  999.0,  999.0,  999.0
1999/08/02 12:20,    7.9,    9.9,   11.1,   13.3,   13.2,   12.4,   14.6,   14.3,   12.5,   12.7,   13.1,   13.8,   16.6,   15.8,   13.5,   12.7,   10.3,    9.5,   10.5,   11.7,  999.0,  999.0,  999.0,  999.0,  999.0,  999.0,  999.0,  999.0,  999.0,  999.0,  999.0,  999.0
1999/08/02 12:30,   11.0,    9.5,   11.4,   12.3,   14.4,   14.8,   14.8,   14.2,   14.7,   14.1,   16.1,   15.3,   15.4,   13.9,   13.9,   13.7,   12.3,   10.7,   12.1,  999.0,   10.2,  999.0,  999.0,  999.0,  999.0,  999.0,    9.8,  999.0,  999.0,  999.0,  999.0,  999.0
1999/08/02 12:40,    8.1,   11.4,   13.3,   13.9,   15.0,   14.8,   15.0,   15.1,   14.7,   15.1,   18.2,   16.3,   16.4,   15.7,   14.7,   13.8,  999.0,   13.8,   13.3,   13.2,   14.4,  999.0,  999.0,  999.0,    8.3,    7.8,    7.2,  999.0,  999.0,  999.0,  999.0,  999.0
1999/08/02 12:50,   10.1,   11.3,   12.7,   12.8,   13.2,   16.6,   15.3,   17.1,   15.6,   16.5,   16.8,   16.8,   16.6,   14.9,   14.4,   14.4,   13.4,   12.2,   11.6,   12.1,   11.5,   12.5,   12.6,  999.0,    7.9,    7.7,    7.6,    8.7,    7.6,    7.8,  999.0,  999.0
1999/08/02 13:00,    6.8,    8.4,    9.4,   12.6,   13.2,   14.0,   12.8,   15.9,   16.1,   15.1,   14.4,   15.5,   16.2,   15.6,   14.7,   13.3,   14.0,   13.7,   13.1,   12.8,   11.8,   12.3,  999.0,  999.0,  999.0,  999.0,  999.0,  999.0,    7.8,    7.5,  999.0,  999.0
1999/08/02 13:10,    9.0,    8.7,   11.1,  999.0,   10.8,   13.2,   13.3,   13.7,   17.4,   14.4,   14.5,   12.9,   15.7,   16.0,   14.4,   13.1,   14.8,   14.0,   13.9,   13.9,   13.9,   13.6,   14.2,   12.4,  999.0,  999.0,  999.0,  999.0,  999.0,  999.0,  999.0,  999.0
1999/08/02 13:20,    9.4,   10.9,   12.4,   11.3,  999.0,   15.1,   14.0,   13.3,  999.0,  999.0,   14.0,   12.7,   16.6,   13.4,  999.0,   11.0,   10.5,  999.0,   13.1,   12.6,   13.7,   13.9,   14.1,  999.0,  999.0,  999.0,  999.0,  999.0,  999.0,  999.0,  999.0,  999.0
1999/08/02 13:30,    9.1,   10.5,   11.9,   13.4,   11.8,   14.8,   15.2,   15.3,   14.5,   15.0,   15.5,   15.6,   14.3,   13.5,   12.6,   13.2,   12.5,   13.3,   10.9,   11.7,   12.0,   11.8,   12.2,   10.6,   11.6,   10.5,  999.0,  999.0,  999.0,  999.0,  999.0,  999.0
1999/08/02 13:40,   10.0,   11.7,   12.4,   15.0,   14.6,   15.6,   14.4,   13.5,   14.5,   14.1,   14.2,   14.6,   12.5,   12.1,   10.2,   10.1,   10.8,   11.9,   12.3,   12.3,   11.6,  999.0,  999.0,  999.0,   10.9,   10.7,   10.0,    9.0,  999.0,  999.0,  999.0,  999.0
1999/08/02 13:50,    7.7,  999.0,   12.6,   14.3,   14.3,   15.3,   14.5,   15.1,   14.7,   14.0,   13.3,   12.4,   12.6,    9.0,   11.0,  999.0,  999.0,   11.5,    9.8,   10.1,    9.9,    9.6,    9.7,   10.2,    9.4,   10.1,   10.0,    9.3,    9.1,    8.3,  999.0,  999.0
1999/08/02 14:00,   12.0,   12.2,   12.6,   10.6,   13.5,   16.1,   15.8,   15.1,   14.9,   14.3,   12.6,   12.9,   13.7,   14.0,   13.6,   14.2,  999.0,  999.0,   11.1,   11.3,   11.3,   11.8,   10.6,   11.4,  999.0,   11.3,    9.9,  999.0,  999.0,  999.0,    8.7,    7.9
1999/08/02 14:10,   12.7,   13.6,   13.2,   12.5,   13.4,   14.3,  999.0,  999.0,  999.0,  999.0,   14.0,  999.0,  999.0,  999.0,  999.0,  999.0,  999.0,  999.0,   16.0,   11.5,    9.9,    9.8,   11.4,   10.1,    9.5,    9.3,    9.1,   10.2,   11.1,   11.4,   10.2,   10.2
1999/08/02 14:20,   11.5,   11.7,   11.7,   13.9,   13.0,   12.8,   12.3,   13.1,   14.0,   14.2,   15.0,   15.5,   14.6,  999.0,  999.0,  999.0,  999.0,   12.2,    8.1,    6.3,    5.5,  999.0,  999.0,  999.0,  999.0,  999.0,    9.7,    9.9,   10.1,    8.8,   10.6,    8.8
1999/08/02 14:30,   10.3,   12.9,   13.6,   14.2,   14.3,   13.9,   11.1,   10.8,   11.5,   11.7,   11.9,   13.8,   14.1,   13.7,   13.5,  999.0,  999.0,   10.3,   10.7,  999.0,    5.3,    5.9,    8.0,    7.7,  999.0,  999.0,  999.0,    7.3,  999.0,    6.5,  999.0,  999.0
1999/08/02 14:40,   10.1,   12.2,   12.6,   14.7,   11.7,   12.9,   12.1,   11.1,   11.4,   12.2,   13.9,   15.1,   15.0,   14.4,   13.6,   13.3,  999.0,   12.0,   11.0,  999.0,   11.4,   11.5,  999.0,   10.5,    9.2,  999.0,  999.0,  999.0,  999.0,  999.0,  999.0,  999.0
1999/08/02 14:50,   12.2,   13.0,   13.1,   13.1,   12.9,   12.8,   13.1,   13.7,   14.8,   13.6,   13.6,   14.3,   14.9,   14.6,   14.1,   13.4,   12.1,   11.8,   11.2,   11.3,   10.8,   10.1,   10.7,  999.0,    9.3,    7.5,  999.0,  999.0,  999.0,    8.8,    9.7,  999.0
1999/08/02 15:00,   11.4,   12.5,   12.8,   11.9,   11.5,   12.3,   13.1,   13.4,   14.0,   14.6,   15.1,   15.4,   15.3,   14.9,   14.4,   13.9,   12.1,   11.1,   11.5,   11.1,   11.1,    9.7,   10.0,  999.0,   10.6,  999.0,  999.0,  999.0,  999.0,  999.0,  999.0,  999.0
1999/08/02 15:10,   11.2,   11.3,   12.8,   12.4,   13.1,   13.2,   13.5,   13.4,   12.9,   14.2,   13.5,   13.4,   14.3,   13.8,   13.3,  999.0,   11.7,   10.0,   10.0,    9.5,    9.4,    9.5,    8.8,    8.4,    8.9,    8.8,    7.9,    7.2,  999.0,  999.0,  999.0,  999.0
1999/08/02 15:20,    9.6,   10.4,   12.1,   11.4,   13.1,   12.5,   12.1,   12.9,   12.8,   13.4,   14.1,   13.9,   13.9,   14.5,  999.0,  999.0,   11.5,   11.4,   11.8,   12.0,   12.0,  999.0,  999.0,    9.2,    9.4,    9.1,    9.8,    8.3,    6.7,    6.8,  999.0,  999.0
1999/08/02 15:30,   10.3,   11.4,   11.7,   11.9,   12.2,   12.7,   13.9,   13.8,   13.1,   13.1,   14.5,   14.8,   15.2,   14.7,   12.5,  999.0,   13.1,   12.7,   12.2,   11.2,   11.3,   12.1,  999.0,  999.0,  999.0,  999.0,    9.9,    8.8,   11.2,    8.1,  999.0,  999.0
1999/08/02 15:40,    9.7,   11.5,   11.9,   12.8,   13.5,   14.1,   14.7,   14.2,   13.2,   13.9,   14.0,   13.1,   13.4,   13.5,   12.7,   11.8,  999.0,  999.0,   11.0,   10.5,   10.3,  999.0,   10.8,  999.0,  999.0,  999.0,  999.0,    6.6,    6.5,  999.0,  999.0,  999.0
1999/08/02 15:50,   10.0,   11.9,   13.4,   14.4,   15.8,   16.5,   15.8,   14.4,   14.2,   15.3,   15.2,   15.5,   15.2,   14.2,   12.8,   11.6,   11.5,   11.5,   12.3,   12.1,  999.0,  999.0,  999.0,  999.0,  999.0,  999.0,  999.0,  999.0,  999.0,  999.0,  999.0,  999.0
1999/08/02 16:00,    9.9,   11.1,   12.9,   14.2,   15.0,   15.0,   14.6,   14.6,   14.0,   13.7,   13.3,   14.4,   13.8,   13.4,   12.4,   10.9,   10.2,   10.4,   11.4,   11.6,   12.2,  999.0,  999.0,   11.4,  999.0,  999.0,  999.0,  999.0,  999.0,  999.0,  999.0,  999.0
1999/08/02 16:10,   10.1,   11.1,   12.4,   13.2,   13.2,   13.8,   14.6,   13.4,   13.3,   13.7,   13.6,   13.9,   13.6,   13.3,   12.0,   11.2,   10.4,   10.3,   10.3,   10.3,   11.0,   11.7,   12.1,  999.0,  999.0,  999.0,  999.0,  999.0,  999.0,  999.0,  999.0,  999.0
1999/08/02 16:20,   10.1,   11.0,   12.5,   13.5,   14.0,   13.8,   13.8,   12.9,   12.8,   12.9,   12.5,   12.3,   13.1,   12.6,  999.0,  999.0,  999.0,  999.0,   10.0,    9.0,    8.1,    9.1,    9.3,  999.0,  999.0,  999.0,  999.0,  999.0,  999.0,  999.0,  999.0,  999.0
1999/08/02 16:30,   10.7,   11.2,   12.7,   13.9,   14.8,   14.7,   15.1,   13.8,   13.5,   13.4,   13.7,   13.2,   13.7,   13.6,  999.0,  999.0,   10.3,  999.0,    9.6,    9.1,    7.8,    8.2,    8.3,  999.0,  999.0,  999.0,  999.0,  999.0,  999.0,  999.0,  999.0,  999.0
1999/08/02 16:40,   10.9,   11.7,   11.8,   13.2,   14.4,   14.9,   14.5,   14.2,   13.7,   13.2,   13.0,   12.8,   12.5,   11.4,   11.1,   10.7,   10.9,  999.0,  999.0,  999.0,    6.9,  999.0,    7.2,  999.0,  999.0,  999.0,  999.0,  999.0,  999.0,  999.0,  999.0,  999.0
1999/08/02 16:50,   11.3,   12.4,   12.5,   13.3,   13.5,   13.4,   13.2,   13.3,   12.9,   12.5,   12.3,   11.7,   11.1,   11.3,   10.9,   10.1,    9.2,  999.0,  999.0,  999.0,  999.0,  999.0,  999.0,  999.0,  999.0,  999.0,  999.0,  999.0,  999.0,  999.0,  999.0,  999.0
1999/08/02 17:00,   10.1,   11.1,   11.6,   13.1,   13.1,   12.7,   12.4,   12.4,   12.6,   12.4,   11.9,   11.8,   12.4,   12.3,   11.3,   10.7,   10.8,   10.3,   10.1,  999.0,  999.0,  999.0,  999.0,  999.0,  999.0,  999.0,  999.0,  999.0,  999.0,  999.0,  999.0,  999.0
1999/08/02 17:10,   11.2,   10.7,   12.0,   12.3,   12.8,   13.7,   13.9,   13.8,   14.0,   13.6,   12.7,   11.7,   12.0,   12.0,   11.2,   11.5,   11.6,  999.0,    9.8,  999.0,  999.0,  999.0,  999.0,  999.0,  999.0,  999.0,  999.0,  999.0,  999.0,  999.0,  999.0,  999.0
1999/08/02 17:20,   11.3,   11.8,   12.2,   13.2,   14.0,   14.1,   13.3,   13.4,   12.7,   13.4,   13.5,   12.6,   11.5,   10.3,    9.7,    9.9,   10.5,  999.0,  999.0,  999.0,  999.0,  999.0,  999.0,  999.0,  999.0,  999.0,  999.0,  999.0,  999.0,  999.0,  999.0,  999.0
1999/08/02 17:30,   11.9,   12.4,   13.6,   14.3,   14.6,   13.7,   13.8,   14.2,   13.9,   13.5,   13.4,   12.8,   11.8,   10.9,   11.4,   10.3,   10.4,   11.2,   11.3,  999.0,  999.0,  999.0,  999.0,  999.0,  999.0,  999.0,  999.0,  999.0,  999.0,  999.0,  999.0,  999.0
1999/08/02 17:40,   12.9,   14.0,   14.7,   14.8,   15.1,   15.1,   15.6,   16.2,   15.3,   15.2,   14.4,   14.4,   13.4,   12.7,   12.9,   12.5,   11.6,   11.9,   12.6,  999.0,  999.0,  999.0,  999.0,  999.0,  999.0,  999.0,  999.0,  999.0,  999.0,  999.0,  999.0,  999.0
1999/08/02 17:50,   12.5,   14.0,   15.2,   15.1,   14.5,   14.3,   13.7,   13.9,   13.8,   13.6,   13.9,   13.8,   13.0,   11.9,   11.1,   11.4,   11.5,   12.2,  999.0,  999.0,  999.0,  999.0,  999.0,  999.0,  999.0,  999.0,  999.0,  999.0,  999.0,  999.0,  999.0,  999.0
1999/08/02 18:00,   12.3,   13.6,   14.5,   15.0,   14.8,   14.9,   13.9,   13.4,   13.3,   12.9,   13.7,   13.9,   13.8,   13.3,   12.0,   10.9,   11.5,   10.5,   12.3,  999.0,  999.0,  999.0,  999.0,  999.0,  999.0,  999.0,  999.0,  999.0,  999.0,  999.0,  999.0,  999.0
1999/08/02 18:10,   12.2,   13.8,   15.1,   15.3,   15.0,   14.4,   14.2,   14.0,   13.5,   13.1,   13.1,   13.2,   12.9,   12.0,   11.4,    9.9,    9.4,    9.4,    9.3,   10.7,  999.0,  999.0,  999.0,  999.0,  999.0,  999.0,  999.0,  999.0,  999.0,  999.0,  999.0,  999.0
1999/08/02 18:20,   12.3,   13.7,   14.6,   15.1,   14.3,   14.2,   13.6,   14.0,   13.7,   13.4,   13.0,   12.4,   12.5,   12.3,   10.9,    9.7,    8.7,    9.1,    9.9,   10.8,   11.0,  999.0,  999.0,  999.0,  999.0,  999.0,  999.0,  999.0,  999.0,  999.0,  999.0,  999.0
1999/08/02 18:30,   12.7,   12.7,   13.9,   14.2,   14.0,   12.5,   12.0,   11.9,   11.8,   12.5,   12.3,   12.5,   12.3,   12.9,   11.5,   11.3,   10.1,   10.1,   10.3,   11.6,   12.8,  999.0,  999.0,  999.0,  999.0,  999.0,  999.0,  999.0,  999.0,  999.0,  999.0,  999.0
1999/08/02 18:40,   13.5,   13.4,   14.2,   14.7,   13.9,   12.5,   12.5,   12.1,   11.7,   11.7,   12.1,   12.4,   12.9,   13.3,   13.5,   12.8,   12.1,   11.7,   10.4,   10.4,   11.5,   11.2,    9.2,   10.4,  999.0,  999.0,  999.0,  999.0,  999.0,  999.0,  999.0,  999.0
1999/08/02 18:50,   13.5,   14.1,   14.2,   14.0,   13.5,   13.2,   13.1,   13.1,   12.1,   11.1,   10.7,   11.0,   10.8,   12.0,   12.4,   12.6,   12.5,   11.7,   11.6,   11.5,   11.6,   12.5,   10.4,  999.0,  999.0,  999.0,  999.0,  999.0,  999.0,  999.0,  999.0,  999.0
1999/08/02 19:00,   12.7,   14.0,   14.4,   14.1,   14.1,   13.9,   13.5,   13.3,   12.5,   11.6,   11.7,   11.9,   13.1,   13.5,   12.5,   12.0,   11.8,   11.7,   12.0,   11.3,  999.0,   10.6,  999.0,  999.0,  999.0,  999.0,  999.0,  999.0,  999.0,  999.0,  999.0,  999.0
1999/08/02 19:10,   12.3,   13.5,   13.5,   13.5,   13.1,   13.5,   13.2,   12.9,   12.4,   12.9,   12.8,   12.5,   12.3,   12.4,   12.5,   11.8,   10.5,    9.7,    9.7,  999.0,  999.0,  999.0,  999.0,  999.0,  999.0,  999.0,  999.0,  999.0,  999.0,  999.0,  999.0,  999.0
1999/08/02 19:20,   12.6,   14.4,   14.2,   14.8,   14.6,   14.4,   14.4,   13.6,   12.1,   10.5,   10.4,   10.7,   10.5,   10.8,   10.6,   10.4,   10.8,   10.0,    9.5,    9.1,    9.3,    7.4,    8.9,  999.0,  999.0,  999.0,  999.0,  999.0,  999.0,   12.4,   12.8,   11.2
1999/08/02 19:30,   12.9,   14.2,   15.8,   15.6,   15.0,   15.3,   14.9,   15.3,   13.7,   12.3,   12.7,   13.7,   14.6,   13.2,   12.1,   10.8,   11.0,   10.7,   10.1,    9.2,    8.8,    8.2,    8.8,    8.8,  999.0,    9.4,   10.2,   10.3,   10.7,  999.0,  999.0,  999.0
1999/08/02 19:40,   12.2,   14.0,   14.6,   16.7,   15.8,   15.4,   15.1,   14.6,   13.6,   12.7,   12.1,   13.2,   13.8,   13.2,   12.9,   12.3,   12.2,   12.2,   12.5,   11.0,   10.8,   10.7,    9.2,    8.6,    8.4,    9.3,  999.0,  999.0,  999.0,  999.0,  999.0,  999.0
1999/08/02 19:50,   11.3,   13.4,   15.3,   15.6,   15.0,   15.2,   14.9,   13.1,   12.6,   13.2,   14.3,   14.3,   13.9,   12.7,   13.2,   12.4,   12.7,   12.9,   12.4,   11.0,   10.3,    8.6,   10.2,    9.7,  999.0,  999.0,  999.0,  999.0,  999.0,  999.0,  999.0,   16.4
1999/08/02 20:00,   12.5,   14.5,   15.5,   15.4,   14.4,  999.0,   13.3,  999.0,  999.0,   13.1,   14.1,   14.4,   15.0,   14.5,  999.0,   15.5,   12.1,  999.0,  999.0,  999.0,   12.8,  999.0,   14.3,  999.0,  999.0,  999.0,  999.0,   12.2,  999.0,  999.0,   13.3,  999.0
1999/08/02 20:10,   12.2,   13.2,   14.9,   15.2,   15.5,   15.7,   15.5,   14.3,   14.7,   13.7,   12.9,   13.1,   14.0,   15.1,  999.0,   14.6,   13.0,   12.8,   12.2,   12.5,   13.1,   13.2,   13.4,   13.4,   13.4,  999.0,  999.0,   12.6,   13.1,  999.0,  999.0,  999.0
1999/08/02 20:20,   12.3,   13.1,   14.3,   15.2,   14.9,   14.8,   13.9,   13.0,   12.7,   12.9,   12.8,   13.8,   13.8,   13.0,   13.9,   13.3,   13.7,   13.9,   14.1,   14.5,   14.9,   14.0,  999.0,   13.1,   13.3,   11.6,   13.8,   11.4,  999.0,  999.0,  999.0,  999.0
1999/08/02 20:30,   11.9,   13.1,   13.8,   15.1,   14.8,   15.3,   14.7,   13.0,   12.8,   13.5,   14.2,   13.7,   12.8,   13.5,   14.1,   13.3,   13.2,  999.0,  999.0,  999.0,  999.0,  999.0,  999.0,  999.0,   12.8,  999.0,  999.0,  999.0,  999.0,  999.0,  999.0,  999.0
1999/08/02 20:40,   12.3,   13.4,   14.2,   14.9,   15.4,   14.9,   14.7,   14.0,   12.5,   11.4,   11.6,   12.3,   12.9,   12.7,   13.4,   12.8,   12.1,   12.6,  999.0,  999.0,  999.0,  999.0,  999.0,  999.0,  999.0,  999.0,  999.0,  999.0,  999.0,  999.0,  999.0,  999.0
1999/08/02 20:50,   14.1,   14.7,   15.4,   15.7,   16.6,   16.8,   16.1,   14.3,   13.8,   13.0,   11.7,   11.8,   12.2,   13.8,   14.4,   14.6,   14.8,   14.2,   14.2,   14.6,   14.5,   14.7,   14.4,   13.8,   13.5,   13.9,  999.0,  999.0,  999.0,  999.0,  999.0,  999.0
1999/08/02 21:00,   13.6,   14.9,   15.8,   16.4,   16.0,   15.6,   15.5,   14.6,   12.5,   13.0,  999.0,   11.1,   10.5,   11.8,   12.3,   11.8,   12.4,   12.4,   12.3,   12.3,   12.1,   11.8,   13.3,   12.7,   12.7,   12.7,   14.2,   15.4,  999.0,  999.0,  999.0,  999.0
1999/08/02 21:10,   10.8,   14.0,   15.4,   15.6,   15.5,   15.2,   15.1,   15.2,   14.5,   13.8,   13.0,   12.3,   12.0,   11.2,   10.4,    9.8,   10.1,   10.9,   11.3,   12.2,   12.1,   12.4,   13.6,   14.5,   16.1,   13.8,   15.8,  999.0,   16.3,   16.7,  999.0,  999.0
1999/08/02 21:20,   14.1,   14.9,   15.5,   13.4,   16.7,   16.7,   18.1,   18.0,   14.8,   11.6,   15.1,   13.7,  999.0,  999.0,  999.0,   14.3,   12.4,   13.2,  999.0,  999.0,  999.0,   16.9,  999.0,   13.4,   12.9,  999.0,   18.5,  999.0,   16.5,   18.5,  999.0,  999.0
1999/08/02 21:30,   12.7,   14.9,   16.1,   16.4,   15.0,   15.2,   14.1,   13.1,   12.6,  999.0,   13.6,   12.4,   12.2,   12.3,   12.4,   13.4,  999.0,   11.9,    9.4,   11.0,   11.4,   12.9,   13.5,   12.2,   15.1,   15.6,  999.0,  999.0,  999.0,  999.0,  999.0,  999.0
1999/08/02 21:40,  999.0,   14.3,   15.2,   15.2,   15.4,   15.3,   14.9,   13.9,   13.2,   13.1,   13.5,   12.6,   12.9,   13.4,  999.0,  999.0,   12.8,   12.5,   12.6,   12.7,   12.5,   11.8,   11.2,   11.2,   11.8,  999.0,  999.0,  999.0,  999.0,  999.0,  999.0,  999.0
1999/08/02 21:50,   12.7,   14.5,   15.2,   15.4,   15.0,   14.8,   14.7,   14.1,   13.6,   13.6,   13.8,   13.1,   14.1,   14.3,  999.0,  999.0,  999.0,   13.0,   12.2,   11.4,  999.0,  999.0,  999.0,  999.0,  999.0,  999.0,  999.0,  999.0,  999.0,  999.0,  999.0,  999.0
1999/08/02 22:00,   12.1,   13.8,   14.7,   15.3,   15.2,   15.0,   14.8,   14.9,   13.9,   13.4,   14.2,  999.0,  999.0,  999.0,  999.0,  999.0,  999.0,  999.0,  999.0,  999.0,  999.0,  999.0,  999.0,  999.0,  999.0,  999.0,  999.0,  999.0,  999.0,  999.0,  999.0,  999.0
1999/08/02 22:10,   12.2,   13.7,   15.4,   15.9,   16.0,   15.9,   14.9,   15.1,   14.9,   13.4,   13.0,   13.3,   13.2,  999.0,  999.0,  999.0,   14.2,  999.0,  999.0,   13.3,  999.0,   13.7,   13.3,  999.0,  999.0,  999.0,  999.0,  999.0,  999.0,  999.0,  999.0,  999.0
1999/08/02 22:20,  999.0,   13.5,   15.1,   15.9,   15.9,   15.9,   15.3,   15.3,   15.2,   14.7,   13.2,   13.0,   12.9,   13.1,  999.0,  999.0,  999.0,  999.0,  999.0,  999.0,  999.0,  999.0,  999.0,  999.0,  999.0,  999.0,  999.0,  999.0,  999.0,  999.0,  999.0,  999.0
1999/08/02 22:30,   12.7,   14.1,   14.7,   16.0,   15.7,   15.8,   15.8,   15.0,   14.8,   14.3,   14.7,   13.8,   13.6,   12.4,   13.1,  999.0,  999.0,  999.0,  999.0,  999.0,  999.0,  999.0,  999.0,  999.0,  999.0,  999.0,  999.0,  999.0,  999.0,  999.0,  999.0,  999.0
1999/08/02 22:40,  999.0,   13.2,   13.9,   15.0,   15.7,   16.3,   16.6,   15.9,   14.8,   14.4,   14.4,   14.7,   14.5,   13.3,   12.2,   11.8,   12.1,  999.0,  999.0,  999.0,   14.4,  999.0,  999.0,  999.0,  999.0,  999.0,  999.0,  999.0,  999.0,  999.0,  999.0,  999.0
1999/08/02 22:50,  999.0,   13.7,   14.9,   16.4,   16.1,   16.1,   16.1,   15.7,   15.2,   14.0,   13.8,   13.8,   13.8,   13.4,   10.0,   10.7,  999.0,   12.7,   14.2,  999.0,  999.0,   14.6,  999.0,  999.0,  999.0,  999.0,  999.0,  999.0,  999.0,  999.0,  999.0,  999.0
1999/08/02 23:00,   13.5,   14.3,   15.2,   15.6,   15.6,   15.6,   16.0,   15.5,   15.7,   14.8,   13.7,   13.3,   14.3,   14.1,   12.5,   12.0,   13.0,   13.1,   15.0,   13.8,   13.1,  999.0,  999.0,  999.0,  999.0,  999.0,  999.0,  999.0,  999.0,  999.0,  999.0,  999.0
1999/08/02 23:10,   14.1,   14.3,   15.3,   15.9,   15.7,   15.6,   15.8,   15.0,   14.6,   14.3,   14.0,   12.8,   12.7,   12.1,   12.9,   12.8,  999.0,  999.0,  999.0,   13.5,  999.0,  999.0,  999.0,  999.0,  999.0,  999.0,  999.0,  999.0,  999.0,  999.0,  999.0,  999.0
1999/08/02 23:20,   13.3,   14.6,   14.8,   15.3,   15.9,   15.3,   16.2,   15.8,   14.7,   13.9,   14.3,   14.2,   14.0,   12.2,   13.6,   14.7,   16.0,  999.0,  999.0,  999.0,  999.0,  999.0,  999.0,  999.0,  999.0,  999.0,  999.0,  999.0,  999.0,  999.0,  999.0,  999.0
1999/08/02 23:30,  999.0,   14.0,   14.7,   15.2,   15.7,   15.7,   15.9,  999.0,   15.9,   15.5,   14.5,   15.2,   15.1,   15.0,   14.6,   14.2,   14.1,   13.9,   14.0,  999.0,  999.0,  999.0,  999.0,  999.0,  999.0,  999.0,  999.0,  999.0,  999.0,  999.0,  999.0,  999.0
1999/08/02 23:40,   13.8,   14.8,   14.9,   15.8,   16.7,   16.8,   16.6,   16.2,   16.6,   16.1,   15.9,   15.5,   15.0,   14.5,   15.0,   14.6,   14.7,  999.0,   14.1,   12.8,  999.0,  999.0,  999.0,  999.0,  999.0,  999.0,  999.0,  999.0,  999.0,  999.0,  999.0,  999.0
1999/08/02 23:50,   13.3,   14.2,   15.0,   14.9,   15.1,   16.0,   16.2,   17.2,   16.5,  999.0,   15.5,   14.3,  999.0,  999.0,  999.0,  999.0,  999.0,  999.0,   12.7,  999.0,  999.0,  999.0,  999.0,  999.0,  999.0,  999.0,  999.0,  999.0,  999.0,  999.0,  999.0,  999.0
